(45) Eugenia
ephemeris date magn radius delta ra dec elong phase
Today11 May 202513.42.938 AU3.933 AU02h49m+11°21'8.3°2.8°
Opposition13 Dec 202511.82.917 AU1.940 AU05h28m+14°09'170.9°3.1°
(45) Eugenia - 2025-05-11
astro.vanbuitenen.nl


 
-1 year
-1 month
-1 day
Now
+1 day
+1 month
+1 year

The interactive orbit chart above shows the body's path through the solar system and its position at the given date. Green and blue lines are shown perpendicular to the ecliptic plane: Green if the path is above the ecliptic plane, blue if it is below. (Left-click and drag to rotate the view; Right-click and drag to move the view; Use scroll wheel to zoom in our out.)

The orbital elements of Eugenia are:

            e (Eccentricity)                : 0.0827964
            a (Semimajor axis)              : 2.7200035
            i (Inclination)                 : 6.60546
            Ω (Longitude of ascending node) : 147.57873
            ω (Argument of perihelion)      : 87.32094
            M (Mean anomaly)                : 162.57568
            Epoch                           : 2025 May 05

            L (Longitude of perihelion)     : 234.88179
            B (Latitude of perihelion)      : 6.59821
            P (Orbital period in years)     : 4.49            
        

The light curve chart below shows the estimated development of the minor planet's magnitude.


The all-sky chart below shows the path of the minor planet over the same period as the light curve. The current position is marked yellow.





The following chart shows the path of the minor planet in the next few days. The field of view is optimized for (~10x50) binoculars and finderscopes. A more printer-friendly version of the same chart can be found below.




Ephemerides:
Date       Time       RA (2000)    DEC (2000)    delta   radius  elong  phase   PA    magn
2025-05-11 00:00 UT   02 49 39.6   +11 21 13     3.933    2.938    8.3    2.8   218   13.4 
2025-05-11 19:56 UT   02 50 55.1   +11 26 34     3.932    2.938    8.7    3.0   220   13.4 
2025-05-12 00:00 UT   02 51 10.5   +11 27 40     3.932    2.938    8.8    3.0   220   13.4 
2025-05-13 00:00 UT   02 52 41.4   +11 34 03     3.931    2.938    9.2    3.2   222   13.4 
2025-05-14 00:00 UT   02 54 12.4   +11 40 23     3.929    2.938    9.7    3.3   224   13.4 
2025-05-15 00:00 UT   02 55 43.4   +11 46 40     3.928    2.938   10.3    3.5   226   13.4 
2025-05-16 00:00 UT   02 57 14.4   +11 52 54     3.926    2.939   10.8    3.7   227   13.4 
2025-05-17 00:00 UT   02 58 45.4   +11 59 05     3.924    2.939   11.3    3.9   229   13.4 
2025-05-18 00:00 UT   03 00 16.5   +12 05 12     3.922    2.939   11.8    4.0   230   13.4 
2025-05-19 00:00 UT   03 01 47.5   +12 11 16     3.919    2.939   12.4    4.2   231   13.5 
2025-05-20 00:00 UT   03 03 18.6   +12 17 16     3.917    2.939   12.9    4.4   232   13.5 
2025-05-21 00:00 UT   03 04 49.7   +12 23 13     3.914    2.940   13.4    4.6   233   13.5 
2025-05-22 00:00 UT   03 06 20.9   +12 29 07     3.912    2.940   14.0    4.8   234   13.5 
2025-05-23 00:00 UT   03 07 52.0   +12 34 57     3.909    2.940   14.5    5.0   235   13.5 
2025-05-24 00:00 UT   03 09 23.1   +12 40 44     3.906    2.940   15.1    5.1   236   13.5 
2025-05-25 00:00 UT   03 10 54.2   +12 46 27     3.903    2.940   15.6    5.3   237   13.5 
2025-05-26 00:00 UT   03 12 25.3   +12 52 07     3.900    2.940   16.2    5.5   238   13.5 
2025-05-27 00:00 UT   03 13 56.4   +12 57 43     3.896    2.941   16.7    5.7   238   13.5 
2025-05-28 00:00 UT   03 15 27.5   +13 03 15     3.893    2.941   17.3    5.9   239   13.5 
2025-05-29 00:00 UT   03 16 58.6   +13 08 44     3.889    2.941   17.8    6.1   240   13.5 
2025-05-30 00:00 UT   03 18 29.6   +13 14 09     3.885    2.941   18.4    6.2   240   13.5 
2025-05-31 00:00 UT   03 20 00.6   +13 19 30     3.882    2.941   19.0    6.4   241   13.5 
2025-06-01 00:00 UT   03 21 31.5   +13 24 48     3.877    2.941   19.5    6.6   241   13.6 
2025-06-02 00:00 UT   03 23 02.5   +13 30 02     3.873    2.941   20.1    6.8   242   13.6 


    Terminology:
            
    delta:  distance between minor planet and earth in AU
    radius: distance between minor planet and sun in AU
    magn:   magnitude (brightness) estimate    
    ra:     right ascension in hours (24h = 360deg)
    dec:    declination in degrees
    elong:  elongation in degrees (angle sun-earth-minor planet)    
    phase:  phase angle in degrees (angle sun-minor planet-earth)        
    AU:     Astronomical Unit (mean distance between earth and sun: 149597870.7 km
    

Orbital elements provided by the MPC (Minor Planet Center).
Calculations by a modified version of AAPlus, a C# implementation of the AA+ project by PJ Naughter from the algorithms presented in the book "Astronomical Algorithms" by Jean Meeus.
NGC2000 dso catalog and star labels from VizieR as provided by the Strasbourg astronomical Data Center.
Tycho2 catalog from the ESO archive.